Home > Weather > Ulm > Past weeks

Flag for Germany Weather for the Past 2 Weeks in Ulm, Baden-Württemberg, Germany

Now
34 °F

Fog.


Feels Like: 31 °F
Forecast: 38 / 52 °F
Wind: 3 mph from Northeast

Location: Laupheim Airport

Current Time: Feb 7, 2016 at 12:17:27 PM

Latest Report: Feb 7, 2016 at 11:20 AM


Visibility: N/A

Pressure: 29.62 "Hg

Humidity: 93%

Dew point: 32 °F

Location of UlmLocation

Historic Weather in Ulm — Graph

°F

Ulm Temperature Yesterday

Maximum temperature yesterday: 50 °F (at 1:20 PM)
Minimum temperature yesterday: 28 °F (at 2:20 AM)
Average temperature yesterday: 38 °F

High & Low Weather Summary for the Past Weeks

 TemperatureHumidityPressure
High55 °F (Feb 1, 11:49 AM)100% (Jan 23, 8:20 PM)30.63 "Hg (Jan 23, 8:20 PM)
Low27 °F (Jan 24, 6:20 AM)47% (Jan 25, 2:20 PM)29.62 "Hg (Feb 7, 10:20 AM)
Average41 °F81%30.23 "Hg
* Reported Jan 23 10:20 AM — Feb 7 10:20 AM, Ulm, Weather by CustomWeather, © 2016

Note: Actual official high and low records may vary slightly from our data, if they occured in-between our weather recording intervals... More about our weather records

Advertising

Ulm Weather History for the Previous 24 Hours

 ConditionsComfort  
Time TempWeatherWind HumidityBarometerVisibility
10:20 AM
Sun, Feb 7
32 °FFog.2 mph93%29.62 "HgN/A
9:20 AM30 °FFog.2 mph93%29.65 "HgN/A
8:20 AM30 °FFog.1 mph93%29.65 "Hg5 mi
7:20 AM30 °FFog.2 mph93%29.68 "HgN/A
6:20 AM30 °FPassing clouds.1 mph93%29.68 "HgN/A
5:20 AM30 °FPassing clouds.1 mph93%29.71 "HgN/A
4:20 AM30 °FPartly cloudy.1 mph93%29.71 "HgN/A
3:20 AM30 °FPassing clouds.1 mph93%29.74 "HgN/A
2:20 AM32 °FPassing clouds.1 mph87%29.74 "HgN/A
1:20 AM32 °FPassing clouds.No wind87%29.77 "HgN/A
12:20 AM34 °FPassing clouds.No wind87%29.77 "HgN/A
11:20 PM
Sat, Feb 6
36 °FPassing clouds.2 mph81%29.80 "HgN/A
10:20 PM45 °FPassing clouds.6 mph53%29.83 "HgN/A
9:20 PM46 °FPassing clouds.6 mph50%29.83 "HgN/A
8:20 PM36 °FPassing clouds.2 mph87%29.86 "HgN/A
7:20 PM39 °FPassing clouds.5 mph81%29.89 "HgN/A
6:20 PM41 °FPassing clouds.2 mph76%29.92 "HgN/A
5:20 PM45 °FBroken clouds.3 mph71%29.95 "HgN/A
4:20 PM50 °FBroken clouds.3 mph58%29.98 "HgN/A
3:20 PM50 °FBroken clouds.8 mph58%30.01 "HgN/A
2:20 PM50 °FPartly sunny.10 mph58%30.01 "HgN/A
1:20 PM50 °FPartly sunny.10 mph62%30.07 "HgN/A
12:20 PM45 °FPartly sunny.7 mph76%30.09 "HgN/A
Weather by CustomWeather, © 2016

See weather overviewHow to use our weather pages